Location: Le Petit-Vavre
(46.5081°N, 1.5239°E)
Time: 16:09:02
(UTC+00:00)

Cosmos 1602 - Pass Details

Date: 03 March 2021
Orbit: 512 x 534 km, 82.5° (Epoch: 17 April)

Event Time Altitude Azimuth Distance (km) Brightness Sun altitude
Rises 18:39:29 0° 191° (S) 2,648 7.4 -10.5°
Reaches altitude 10° 18:41:36 10° 193° (SSW) 1,768 6.5 -10.9°
Maximum altitude 18:45:29 76° 280° (W) 552 3.9 -11.6°
Drops below altitude 10° 18:49:26 10° 6° (N) 1,794 6.4 -12.2°
Sets 18:51:36 0° 8° (N) 2,692 7.3 -12.6°
